QPF
0.00 0.00 0.00 0.00 0.00 0.00 0.00 0.00 0.00 0.00 0.00 0.00 0.00 0.00 0.00 0.00 0.00 0.00 0.00 0.00 0.00 0.00 0.00 0.00 0.00 0.00 0.00 0.00 0.00 0.00 0.00 0.00
0.00 0.00 0.00 0.00 0.00 0.00 0.00 0.00 0.00 0.00 0.00 0.00 0.00 0.00 0.00 0.00 0.00 0.00 0.00 0.00 0.00 0.00 0.00 0.00 0.00 0.00 0.00 0.00 0.00 0.00 0.00 0.00
0.00 0.00 0.00 0.00 0.00 0.00 0.00 0.00 0.00 0.00 0.00 0.00 0.00 0.00 0.00 0.00 0.00 0.00 0.00 0.00 0.00 0.00 0.00 0.00 0.00 0.00 0.00 0.00 0.00 0.00 0.00 0.00
0.00 0.00 0.00 0.00 0.00 0.00 0.00 0.00 0.00 0.00 0.00 0.00 0.00 0.00 0.00 0.00 0.00 0.00 0.00 0.00 0.00 0.00 0.00 0.00 0.00 0.00 0.00 0.00 0.00 0.00 0.00 0.00
0.00 0.00 0.00 0.00 0.00 0.00 0.00 0.00 0.00 0.00 0.00 0.00 0.00 0.00 0.00 0.00 0.00 0.00 0.00 0.00 0.00 0.00 0.00 0.00 0.00 0.00 0.00 0.00 0.00 0.00 0.00 0.00
0.00 0.00 0.00 0.00 0.00 0.00 0.00 0.00 0.00 0.00 0.00 0.00 0.00 0.00 0.00 0.00 0.00 0.00 0.00 0.00 0.00 0.00 0.00 0.00 0.00 0.00 0.00 0.00 0.00 0.00 0.00 0.00
0.00 0.00 0.00 0.00 0.00 0.00 0.00 0.00 0.00 0.00 0.00 0.00 0.00 0.00 0.00 0.00 0.00 0.00 0.00 0.00 0.00 0.00 0.00 0.00 0.00 0.00 0.00 0.00 0.00 0.00 0.00 0.00
0.00 0.00 0.00 0.00 0.00 0.00 0.00 0.00 0.00 0.00 0.00 0.00 0.00 0.00 0.00 0.00 0.00 0.00 0.00 0.00 0.00 0.00 0.00 0.00 0.00 0.00 0.00 0.00 0.00 0.00 0.00 0.00
0.00 0.00 0.00 0.00 0.00 0.00 0.00 0.00 0.00 0.00 0.00 0.00 0.00 0.00 0.00 0.00 0.00 0.00 0.00 0.00 0.00 0.00 0.00 0.00 0.00 0.00 0.00 0.00 0.00 0.00 0.00 0.00
0.00 0.00 0.00 0.00 0.00 0.00 0.00 0.00 0.00 0.00 0.00 0.00 0.00 0.00 0.00 0.00 0.00 0.00 0.00 0.00 0.00 0.00 0.00 0.00 0.00 0.00 0.00 0.00 0.00 0.00 0.00 0.00
0.00 0.00 0.00 0.00 0.00 0.00 0.00 0.00 0.00 0.00 0.00 0.00 0.00 0.00 0.00 0.00 0.00 0.00 0.00 0.00 0.00 0.00 0.00 0.00 0.00 0.00 0.00 0.00 0.00 0.00 0.00 0.00
0.00 0.00 0.00 0.00 0.00 0.00 0.00 0.00 0.00 0.00 0.00 0.00 0.00 0.00 0.00 0.00 0.00 0.00 0.00 0.00 0.00 0.00 0.00 0.00 0.00 0.00 0.00 0.00 0.00 0.00 0.00 0.00
0.00 0.00 0.00 0.00 0.00 0.00 0.00 0.00 0.00 0.00 0.00 0.00 0.00 0.00 0.00 0.00 0.00 0.00 0.00 0.00 0.00 0.00 0.00 0.00 0.00 0.00 0.00 0.00 0.00 0.00 0.00 0.00
0.00 0.00 0.00 0.00 0.00 0.00 0.00 0.00 0.00 0.00 0.00 0.00 0.00 0.00 0.00 0.00 0.00 0.00 0.00 0.00 0.00 0.00 0.00 0.00 0.00 0.00 0.00 0.00 0.00 0.00 0.00 0.00
0.00 0.00 0.00 0.00 0.00 0.00 0.00 0.00 0.00 0.00 0.00 0.00 0.00 0.00 0.00 0.00 0.00 0.00 0.00 0.00 0.00 0.00 0.00 0.00 0.00 0.00 0.00 0.00 0.00 0.00 0.00 0.00
0.00 0.00 0.00 0.00 0.00 0.00 0.00 0.00 0.00 0.00 0.00 0.00 0.00 0.00 0.00 0.00 0.00 0.00 0.00 0.00 0.00 0.00 0.00 0.00 0.00 0.00 0.00 0.00 0.00 0.00 0.00 0.00
0.00 0.00 0.00 0.00 0.00 0.01 0.01 0.01 0.00 0.00 0.00 0.00 0.00 0.00 0.00 0.00 0.00 0.00 0.00 0.00 0.00 0.00 0.00 0.00 0.00 0.00 0.00 0.00 0.00 0.00 0.00 0.00
0.00 0.00 0.00 0.01 0.01 0.02 0.03 0.02 0.03 0.03 0.02 0.01 0.00 0.00 0.00 0.00 0.00 0.00 0.00 0.00 0.00 0.00 0.00 0.00 0.00 0.00 0.00 0.00 0.00 0.00 0.00 0.00
0.00 0.00 0.01 0.01 0.00 0.00 0.01 0.01 0.02 0.03 0.02 0.02 0.01 0.01 0.01 0.00 0.00 0.00 0.00 0.00 0.00 0.00 0.00 0.00 0.00 0.00 0.00 0.00 0.00 0.00 0.00 0.00
MSLP
995.65 996.08 995.65 995.45 995.39 995.73 995.17 995.45 995.41 995.40 995.89 996.36 995.90 995.77 995.71 995.46 995.71 996.52 997.23 998.31 999.45 1000.71 1001.83 1002.89 1003.97 1004.99 1005.94 1007.00 1007.91 1008.57 1009.27 1010.22
995.16 995.81 995.32 994.27 995.29 995.33 994.62 994.12 994.14 994.63 994.43 994.22 994.78 994.71 994.67 994.41 994.67 995.06 996.05 997.05 998.11 999.13 1000.23 1001.52 1002.55 1003.80 1005.12 1006.06 1006.79 1007.65 1008.40 1009.14
994.84 994.21 993.71 994.32 993.91 994.06 994.57 994.27 993.55 993.82 993.27 993.84 994.15 993.99 993.67 993.49 993.60 993.99 994.68 995.65 996.72 997.80 998.98 1000.31 1001.58 1002.56 1003.83 1004.94 1005.84 1006.72 1007.22 1007.94
993.53 993.59 994.07 993.56 993.91 993.76 993.43 993.70 993.52 993.29 992.23 992.79 993.01 993.53 993.47 993.35 993.17 993.40 993.99 994.65 995.59 996.70 998.12 999.10 1000.40 1001.30 1002.41 1003.46 1004.41 1005.17 1005.88 1006.90
993.64 993.62 993.49 992.92 993.02 993.07 993.24 993.63 992.38 992.64 992.44 992.87 993.11 993.27 993.22 993.09 993.20 993.64 994.44 995.09 995.35 996.06 997.07 998.21 999.38 1000.37 1001.09 1002.14 1002.94 1003.89 1005.19 1006.04
992.07 991.87 992.58 993.16 992.79 992.60 992.45 992.05 992.08 991.34 991.93 992.11 992.25 992.69 992.77 992.72 992.77 993.02 994.07 994.83 995.25 995.91 996.57 997.71 998.70 999.56 1000.31 1001.04 1002.00 1003.00 1003.91 1004.99
992.94 992.24 992.04 991.95 992.26 992.49 992.00 991.83 991.57 991.73 991.39 991.72 991.89 992.13 992.34 992.26 992.27 992.63 993.54 994.60 994.93 995.54 996.24 997.28 998.17 998.99 999.95 1000.73 1001.50 1002.16 1003.19 1004.22
992.88 992.48 992.00 991.33 991.34 991.48 991.56 991.78 991.65 991.58 990.71 991.28 991.56 992.13 991.99 991.96 991.96 992.25 992.86 993.85 994.46 995.32 995.99 996.70 997.43 998.44 999.47 1000.25 1001.04 1001.95 1002.60 1003.50
992.37 992.20 991.77 990.82 990.47 990.31 990.49 990.66 990.80 990.05 990.39 991.30 991.05 990.97 991.23 991.45 991.60 991.68 991.90 992.47 993.42 994.31 994.88 995.93 996.86 997.95 998.83 999.83 1000.70 1001.53 1002.21 1003.27
992.32 991.74 990.59 989.64 989.73 989.78 989.70 989.57 989.66 989.76 990.19 990.06 990.45 990.31 990.57 990.85 990.90 991.18 991.32 991.62 992.38 993.38 994.60 995.79 996.44 997.37 998.50 999.45 1000.31 1001.17 1001.95 1002.85
991.98 991.10 990.65 989.90 990.17 990.63 989.99 989.25 989.21 988.92 989.50 989.88 989.69 990.23 990.43 990.93 990.77 990.86 990.98 991.38 991.82 992.68 993.90 995.24 995.83 996.85 997.93 998.85 999.93 1001.00 1001.96 1002.73
991.84 991.42 990.77 992.26 992.58 992.81 992.10 989.98 989.17 988.86 989.14 989.23 989.84 989.69 989.79 989.95 991.08 991.39 991.29 991.63 992.32 992.98 993.79 994.91 995.41 996.48 997.54 998.52 999.60 1000.53 1001.52 1002.53
992.14 991.86 992.00 993.63 993.63 993.37 992.89 991.97 991.06 988.84 988.79 989.10 989.39 989.73 991.06 991.54 991.71 991.25 991.73 992.04 992.51 993.25 994.27 995.05 995.71 996.79 997.65 998.63 999.65 1000.52 1001.47 1002.35
991.59 992.40 993.22 994.70 994.38 993.62 994.13 993.12 992.14 991.12 990.45 990.08 990.04 991.47 991.77 992.22 992.07 992.09 992.62 992.89 993.28 993.90 995.23 995.96 996.58 997.34 998.13 998.94 999.81 1000.52 1001.23 1001.94
992.84 993.67 995.22 995.50 995.52 995.26 994.63 994.66 993.58 992.40 991.56 991.53 991.90 992.30 992.39 992.58 992.40 992.84 993.48 993.72 994.31 995.09 995.96 996.72 997.18 997.90 998.62 999.35 1000.11 1000.68 1001.27 1002.30
994.77 995.99 996.16 996.38 996.63 996.14 995.15 995.98 995.50 993.89 992.84 992.83 993.09 993.30 994.15 993.65 993.35 993.49 993.93 994.17 994.88 995.63 996.47 997.41 998.18 998.62 999.24 1000.05 1000.68 1001.44 1002.15 1003.22
995.67 996.72 997.21 997.67 997.22 997.34 997.07 997.25 996.98 995.73 995.17 995.22 995.07 995.02 995.34 994.94 994.94 995.15 994.82 995.39 995.79 996.51 997.15 998.02 998.75 999.50 999.85 1000.26 1000.92 1001.97 1002.82 1003.38
995.73 996.89 997.25 998.79 998.70 998.90 998.40 998.67 998.34 997.23 996.78 996.60 996.28 996.32 996.46 996.33 996.28 996.68 996.40 996.52 997.11 997.73 998.57 999.14 999.68 1000.57 1000.90 1001.09 1001.75 1002.09 1002.59 1003.52
997.82 998.55 999.05 1000.01 1000.49 1000.25 1000.28 1000.31 999.53 998.45 998.28 998.33 998.16 998.02 998.00 997.82 997.94 997.98 997.78 997.80 998.39 998.20 999.50 999.76 1000.27 1001.07 1001.65 1001.87 1000.91 1001.28 1002.53 1003.34
Thickness
5810 5813 5820 5809 5795 5833 5819 5825 5809 5820 5823 5840 5860 5860 5868 5876 5881 5878 5881 5877 5872 5868 5863 5857 5851 5845 5839 5830 5825 5824 5819 5813
5798 5805 5815 5819 5830 5794 5813 5783 5777 5805 5816 5820 5840 5852 5865 5874 5880 5887 5887 5884 5881 5877 5873 5867 5862 5854 5844 5836 5830 5826 5823 5818
5785 5781 5793 5796 5796 5807 5817 5811 5793 5784 5808 5852 5847 5859 5867 5880 5890 5893 5894 5890 5888 5884 5881 5874 5867 5861 5851 5842 5833 5830 5828 5823
5769 5801 5807 5811 5796 5807 5788 5783 5806 5808 5820 5872 5868 5867 5873 5876 5888 5895 5897 5898 5895 5890 5882 5878 5870 5866 5857 5851 5844 5840 5836 5826
5751 5774 5788 5787 5799 5810 5812 5814 5799 5786 5802 5863 5858 5859 5870 5873 5881 5885 5883 5885 5890 5890 5884 5878 5873 5868 5864 5857 5852 5846 5836 5829
5752 5770 5783 5762 5780 5800 5806 5793 5796 5806 5819 5839 5848 5848 5862 5872 5881 5886 5881 5880 5884 5883 5883 5878 5873 5869 5865 5861 5857 5849 5842 5833
5765 5783 5788 5783 5776 5781 5782 5794 5786 5806 5811 5828 5843 5848 5858 5871 5878 5879 5877 5875 5879 5880 5880 5875 5870 5868 5862 5858 5855 5851 5841 5833
5747 5769 5776 5774 5785 5785 5785 5788 5790 5801 5805 5841 5848 5851 5853 5862 5870 5871 5875 5875 5878 5877 5877 5873 5871 5865 5859 5855 5851 5847 5841 5834
5728 5758 5763 5754 5777 5788 5789 5795 5795 5784 5809 5830 5832 5840 5849 5858 5866 5870 5879 5883 5879 5879 5880 5876 5872 5865 5858 5854 5851 5844 5839 5832
5733 5752 5723 5776 5804 5802 5793 5801 5807 5808 5813 5823 5830 5847 5855 5865 5865 5869 5878 5884 5885 5882 5877 5873 5873 5865 5858 5853 5848 5841 5836 5829
5724 5741 5760 5777 5782 5776 5780 5784 5807 5807 5811 5820 5833 5835 5836 5854 5865 5870 5876 5882 5885 5885 5879 5872 5869 5863 5855 5851 5844 5834 5826 5820
5734 5725 5728 5740 5751 5762 5768 5755 5806 5810 5807 5815 5820 5801 5828 5857 5857 5859 5869 5874 5873 5875 5873 5866 5865 5861 5851 5844 5836 5827 5820 5812
5720 5726 5751 5731 5744 5758 5733 5756 5776 5811 5813 5814 5808 5823 5825 5836 5843 5857 5859 5863 5867 5865 5858 5856 5856 5850 5840 5833 5823 5820 5814 5805
5734 5717 5715 5723 5737 5740 5742 5762 5770 5781 5791 5799 5811 5806 5815 5822 5832 5840 5842 5848 5852 5850 5843 5842 5841 5835 5826 5821 5818 5812 5805 5797
5716 5720 5710 5722 5722 5736 5745 5744 5757 5770 5782 5787 5789 5795 5807 5813 5824 5828 5829 5833 5836 5832 5827 5826 5826 5821 5811 5807 5804 5799 5793 5782
5698 5690 5698 5708 5712 5724 5735 5732 5740 5760 5772 5777 5777 5785 5785 5800 5811 5817 5819 5821 5822 5819 5813 5807 5805 5804 5798 5793 5788 5780 5772 5762
5685 5685 5690 5692 5701 5708 5714 5718 5722 5741 5749 5751 5759 5765 5771 5782 5789 5794 5802 5804 5806 5802 5799 5793 5791 5786 5784 5780 5774 5762 5755 5749
5684 5687 5689 5676 5682 5686 5693 5696 5704 5718 5726 5736 5745 5750 5758 5764 5772 5772 5777 5782 5782 5780 5774 5772 5771 5763 5761 5761 5754 5749 5742 5732
5670 5671 5670 5662 5661 5671 5671 5674 5688 5705 5713 5716 5724 5732 5739 5744 5749 5751 5759 5761 5756 5760 5752 5756 5753 5746 5743 5740 5748 5738 5731 5722